Regional Weather Roundup
Issued by NWS

Home | Current Version | Previous Version | Graphics & Text | Print | Product List | Glossary Off
Versions: 1 2 3 4 5 6 7 8 9 10 11 12 13 14 15 16 17 18 19 20 21 22 23 24 25 26 27 28 29 30 31 32 33 34 35 36 37 38 39 40 41 42 43 44 45 46 47 48 49 50

000
ASUS43 KMKX 291600
RWRWI

WISCONSIN REGIONAL WEATHER ROUNDUP
NATIONAL WEATHER SERVICE MILWAUKEE/SULLIVAN WI
1100 AM CDT THU SEP 29 2016

NOTE: "FAIR" INDICATES FEW OR NO CLOUDS BELOW 12,000 FEET WITH NO
SIGNIFICANT WEATHER AND/OR OBSTRUCTIONS TO VISIBILITY.

WIZ001-002-006>008-014>016-023>028-291700-
NORTHWEST WISCONSIN

CITY           SKY/WX    TMP DP  RH WIND       PRES   REMARKS
SUPERIOR ARPT  CLOUDY    57  53  84 NE8       30.52S
ASHLAND        CLOUDY    57  52  83 NE13      30.52S
HAYWARD        CLOUDY    57  50  77 NE13      30.50S
SIREN          PTSUNNY   56  49  77 E8        30.50R
CUMBERLAND     CLOUDY    54  50  87 NE8       30.48S
RICE LAKE      PTSUNNY   57  49  75 NE13      30.49S
CHETEK         NOT AVBL
LADYSMITH      CLOUDY    55  51  86 NE8G17    30.49S
EAU CLAIRE     NOT AVBL
MENOMONIE      SUNNY     60  51  70 N8        30.46R
NEW RICHMOND   PTSUNNY   57  51  79 NE8       30.49S
OSCEOLA        MOSUNNY   60  50  69 NE7       30.51S
$$

WIZ003>005-009-010-017-018-291700-
NORTH CENTRAL WISCONSIN

CITY           SKY/WX    TMP DP  RH WIND       PRES   REMARKS
MANITOWISH WTR NOT AVBL
ARBOR VITAE    MOSUNNY   57  52  83 NE7       30.48R
WOODRUFF       MOSUNNY   57  52  83 NE7       30.48R
RHINELANDER    MOSUNNY   58  52  80 NE8       30.48R
EAGLE RIVER    PTSUNNY   54  51  90 NE12      30.48R
LAND O LAKES   CLOUDY    55  50  85 NE9       30.50S
PHILLIPS       CLOUDY    54  50  87 NE10      30.48R
TOMAHAWK       PTSUNNY   54  49  83 N7        30.47S
MEDFORD        SUNNY     56  54  91 N9        30.45R
MERRILL        MOSUNNY   57  51  81 N13       30.46R
$$

WIZ029-030-035-036-043>047-291700-
CENTRAL WISCONSIN

CITY           SKY/WX    TMP DP  RH WIND       PRES   REMARKS
WAUSAU         SUNNY     60  51  72 VRB7      30.42S
MOSINEE        MOSUNNY   59  54  82 NE13      30.43S
MARSHFIELD     SUNNY     60  49  66 N10       30.42R
STEVENS POINT  SUNNY     60  51  71 N9        30.42R
WAUPACA        SUNNY     66  54  66 N9        30.38S
WAUTOMA        SUNNY     65  53  65 N10G18    30.36F
WISC RAPIDS    SUNNY     64  52  64 N10       30.41S
CAMP DOUGLAS   NOT AVBL
$$

WIZ011>013-019>022-031-037>040-048>050-291700-
NORTHEAST WISCONSIN

CITY           SKY/WX    TMP DP  RH WIND       PRES   REMARKS
ANTIGO         SUNNY     58  52  81 NE7       30.44S
SHAWANO        SUNNY     65  54  67 NE13      30.40S
OCONTO         NOT AVBL
STURGEON BAY   SUNNY     66  56  70 NE12      30.38S
GREEN BAY      LGT RAIN  63  57  81 N20G28    30.37S
MANITOWOC      NOT AVBL
APPLETON       MOSUNNY   63  52  67 NE17G25   30.35R
CLINTONVILLE   SUNNY     63  50  63 NE14      30.39R
OSHKOSH        MOSUNNY   62  55  77 NE15G24   30.35R
$$

WIZ032>034-041-042-053>061-291700-
SOUTHWEST WISCONSIN

CITY           SKY/WX    TMP DP  RH WIND       PRES   REMARKS
LA CROSSE      SUNNY     61  51  70 NW10      30.42S
SPARTA         SUNNY     58  50  75 N8        30.42R
VIROQUA        SUNNY     60  50  70 NE10      30.39S
BOSCOBEL       SUNNY     66  51  58 NE9       30.36F
PRAIRIE DU CHI SUNNY     61  49  65 NW7       30.37S
PLATTEVILLE    SUNNY     62  54  75 N14       30.33S
$$

WIZ056-057-062-063-064-067-068-291700-
SOUTH CENTRAL WISCONSIN

CITY           SKY/WX    TMP DP  RH WIND       PRES   REMARKS
REEDSBURG      NOT AVBL
BARABOO/DELLS  SUNNY     61  52  71 NE8       30.35S
LONE ROCK      NOT AVBL
MINERAL POINT  SUNNY     63  54  72 N13       30.33F
MADISON        MOSUNNY   62  54  74 N17G23    30.31S
MIDDLETON      MOSUNNY   61  54  76 N12       30.33R
WATERTOWN      MOSUNNY   63  57  81 N15G22    30.29R
MONROE         MOSUNNY   59  54  82 N14G23    30.29R
JANESVILLE     MOSUNNY   66  88 100 N12G17    30.25S
$$

WIZ051-052-058>065-066-070>072-291700-
SOUTHEAST WISCONSIN

CITY           SKY/WX    TMP DP  RH WIND       PRES   REMARKS
MILWAUKEE      MOSUNNY   65  57  75 NE13G22   30.27R
WAUKESHA       MOSUNNY   66  54  63 NE17G24   30.27S
MILWAUKEE/TIMM NOT AVBL
RACINE         PTSUNNY   64  56  75 NE20G30   30.25S
BURLINGTON     MOSUNNY   65  54  67 NE17G29   30.24R
KENOSHA        CLOUDY    64  56  75 NE21G32   30.23S
FOND DU LAC    SUNNY     63  56  78 N17G28    30.34S
SHEBOYGAN      PTSUNNY   66  59  78 NE22G32   30.31R
WEST BEND      PTSUNNY   70  63  78 NE14G22   30.29R
JUNEAU         PTSUNNY   60  55  83 N17G25    30.32S
$$

LSZ147-162-291700-
LAKE SUPERIOR

STATION/POSITION TIME  TEMP    WIND        PRES    WAVE
                       AIR SEA DIR/SP/G            HT/PER
                 (UTC) (F)     (DEG/KT/KT) (MB)    (FT/S)
W MID LAKE BUOY  1450   55 55   40/ 10/ 12 1033.4R   2/ 4
DEVILS ISLAND    1500   53      40/ 11/ 13 1033.9R
SAXON HARBOR     1500   57      40/ 11/ 13 1032.8R
$$

LMZ867-665-643>646-291700-
LAKE MICHIGAN

STATION/POSITION TIME  TEMP    WIND        PRES    WAVE
                       AIR SEA DIR/SP/G            HT/PER
                 (UTC) (F)     (DEG/KT/KT) (MB)    (FT/S)
CHAMBERS ISLAND  1500   62      20/ 19/ 21 1028.4R
S GREEN BAY BUOY 1400   59 62   50/ 17/ 21 1027.4
N MID LAKE BUOY  1450   62 66   40/ 16/ 19 1028.2R   3/ 5
NORTHPORT PIER   1540   63      20/  8/ 11 1029.1R
KEWAUNEE LAKESHO 1500   61      10/ 11/ 17 1026.6R
SHEBOYGAN LAKESH 1500   60     360/ 21/ 22 1025.7R
PORT WASHINGTON  1505   65      30/ 17/ 26 1025.7R
ATWATER BUOY     1500   56 52   20/ 16/ 19 1024.1R
MILWAUKEE LAKESH 1510   60      20/ 20/ 23   N/A
S MID LAKE BUOY  1450   64 69   50/ 23/ 27 1021.4R   7/ 8
KENOSHA   LAKESH 1500   60      20/ 22/ 24 1023.0R
$$

TC  - TEMPERATURE IN CELSIUS
VSB - VISIBILITY IN STATUTE MILES
WCI - WIND CHILL INDEX
HX  - HEAT INDEX




USA.gov is the U.S. government's official web portal to all federal, state and local government web resources and services.